Tracking 19570 objects as of 22-Feb-2019
HD Live streaming from Space Station
objects crossing your sky now

HGS 4 (GALAXY 4)

Track HGS 4 (GALAXY 4) now!
HGS 4 (GALAXY 4) is classified as:


NORAD ID: 22694
Int'l Code: 1993-039A
Perigee: 35,732.6 km
Apogee: 35,850.3 km
Inclination: 14.5 °
Period: 1,436.0 minutes
Semi major axis: 42162 km
RCS: 28.88 m2 (large)
Launch date: June 25, 1993
Source: United States (US)
Launch site: FRENCH GUIANA (FRGUI)
aabbcc
Your satellite tracking list
Your tracking list is empty




NASA's NSSDC Master Catalog

Two Line Element Set (TLE):
1 22694U 93039A   19052.38475971 -.00000121 +00000-0 +00000-0 0  9993
2 22694 014.4548 016.9678 0013960 266.7895 080.3152 01.00279923092193
Source of the keplerian elements: AFSPC